La Paz, Mexico

1:21 AM MDT on September 21, 2017 (GMT -0600)
Gen Manuel Marquez De Leon

Weather History for MMLP - February, 2013

Change the Weather History Date:

Sunday, February 17, 2013

  Actual Average Record
Temperature  
Mean Temperature 70 °F -  
Max Temperature 86 °F 79 °F 95 °F (2014)
Min Temperature 55 °F 54 °F 44 °F (1999)
Cooling Degree Days 6    
Growing Degree Days 20 (Base 50)    
Moisture  
Dew Point 48 °F    
Average Humidity 49    
Maximum Humidity 76    
Minimum Humidity 22    
Precipitation  
Precipitation 0.00 in - - ()
Sea Level Pressure  
Sea Level Pressure 30.00 in    
Wind  
Wind Speed 4 mph ()    
Max Wind Speed 12 mph    
Max Gust Speed -    
Visibility 11.2 miles    
Events      
Averages and records for this station are not official NWS values.
T = Trace of Precipitation, MM = Missing Value Source: Averaged Metar Reports

Daily Weather History Graph

Daily Weather History Graph

Search for Another Location

Airport or City:

Trip Planner

Search our weather history database for the weather conditions in past years. The results will help you decide how hot, cold, wet, or windy it might be!

Date:

Astronomy

Feb. 17, 2013 Rise Set
Actual Time 6:53 AM MST 6:18 PM MST
Civil Twilight 6:30 AM MST 6:41 PM MST
Nautical Twilight 6:03 AM MST 7:07 PM MST
Astronomical Twilight 5:36 AM MST 7:34 PM MST
Moon 11:39 AM MST (2/17) 12:27 AM MST (2/17)
Length of Visible Light 12h 11m
Length of Day
11h 24m
Waxing Crescent, 49% of the Moon is Illuminated
Feb 17
Waxing Crescent
Feb 17
First Quarter
Feb 25
Full
Mar 4
Last Quarter
Mar 11
New

Hourly Weather History & Observations

Time (MST) Temp. Dew Point Humidity Pressure Visibility Wind Dir Wind Speed Gust Speed Precip Events Conditions
1:45 AM 64 °F 54 °F 61% 29.97 in 2 mi Calm Calm - -   Partly Cloudy
4:50 AM 58 °F 53 °F 76% 29.95 in 2 mi Calm Calm - -  
5:42 AM 50.0 °F 41.0 °F 71% 29.96 in 10.0 mi South 3.5 mph - N/A   Scattered Clouds
6:48 AM 50.0 °F 41.0 °F 71% 30.00 in 13.0 mi South 3.5 mph - N/A   Scattered Clouds
7:41 AM 51.8 °F 41.0 °F 67% 30.06 in 13.0 mi South 4.6 mph - N/A   Scattered Clouds
7:50 AM 59 °F 52 °F 70% 30.00 in 12 mi Calm Calm - -   Scattered Clouds
8:40 AM 60.8 °F 41.0 °F 48% 30.02 in 13.0 mi South 3.5 mph - N/A   Scattered Clouds
9:46 AM 68.0 °F 48.2 °F 49% 30.03 in 13.0 mi Calm Calm - N/A   Scattered Clouds
10:40 AM 74 °F 59 °F 50% 30.07 in 19 mi WNW 4.5 mph - -   Clear
10:40 AM 71.6 °F 42.8 °F 35% 30.08 in 13.0 mi NNE 4.6 mph - N/A   Scattered Clouds
11:40 AM 71.6 °F 51.8 °F 50% 30.02 in 13.0 mi NNW 8.1 mph - N/A   Partly Cloudy
12:44 PM 75.2 °F 51.8 °F 44% 29.99 in 13.0 mi NNW 11.5 mph - N/A   Partly Cloudy
1:40 PM 79 °F 56 °F 34% 30.02 in 19 mi NW 6.7 mph - -   Scattered Clouds
1:41 PM 75.2 °F 50.0 °F 41% 30.02 in 13.0 mi NNW 11.5 mph - N/A   Partly Cloudy
2:48 PM 78.8 °F 37.4 °F 23% 29.94 in 10.0 mi North 11.5 mph - N/A   Scattered Clouds
3:48 PM 77.0 °F 41.0 °F 28% 29.93 in 10.0 mi NW 11.5 mph - N/A   Scattered Clouds
4:50 PM 84 °F 51 °F 22% 29.92 in 19 mi NNW 6.7 mph - -   Clear
5:00 PM 77.0 °F 39.2 °F 26% 30.04 in 10.0 mi NW 11.5 mph - N/A   Scattered Clouds
5:46 PM 73.4 °F 46.4 °F 38% 29.95 in 10.0 mi NW 6.9 mph - N/A   Clear
6:52 PM 68.0 °F 51.8 °F 56% 29.98 in 10.0 mi Calm Calm - N/A   Clear
7:41 PM 66.2 °F 48.2 °F 52% 30.06 in 10.0 mi Calm Calm - N/A   Clear
7:50 PM 70 °F 56 °F 51% 29.98 in 2 mi South 2.2 mph - -  
8:51 PM 64.4 °F 46.4 °F 52% 30.01 in 10.0 mi South 6.9 mph - N/A   Clear
9:43 PM 62.6 °F 46.4 °F 55% 30.00 in 10.0 mi South 11.5 mph - N/A   Clear
10:41 PM 59.0 °F 46.4 °F 63% 30.12 in 10.0 mi South 6.9 mph - N/A   Clear